Weather History for KLKV - February, 2013

Change the Weather History Date:

Saturday, February 23, 2013

  Actual Average Record
Temperature  
Mean Temperature 27 °F -  
Max Temperature 35 °F 43 °F 63 °F (1947)
Min Temperature 19 °F 23 °F 5 °F (1974)
Degree Days  
Heating Degree Days 38    
Moisture  
Dew Point 19 °F    
Average Humidity 74    
Maximum Humidity 93    
Minimum Humidity 52    
Precipitation  
Precipitation 0.01 in - - ()
Sea Level Pressure  
Sea Level Pressure 30.12 in    
Wind  
Wind Speed 14 mph (WNW)    
Max Wind Speed 30 mph    
Max Gust Speed 41 mph    
Visibility 10 miles    
Events      
Averages and records for this station are not official NWS values.
T = Trace of Precipitation, MM = Missing Value Source: NWS Daily Summary

Daily Weather History Graph

Daily Weather History Graph

Search for Another Location

Airport or City:

Trip Planner

Search our weather history database for the weather conditions in past years. The results will help you decide how hot, cold, wet, or windy it might be!

Date:

Astronomy

Feb. 23, 2013 Rise Set
Actual Time 6:45 AM PST 5:44 PM PST
Civil Twilight 6:17 AM PST 6:13 PM PST
Nautical Twilight 5:44 AM PST 6:45 PM PST
Astronomical Twilight 5:12 AM PST 7:18 PM PST
Moon 3:59 PM PST (2/23) 5:12 AM PST (2/23)
Length of Visible Light 11h 55m
Length of Day
10h 59m
Waxing Gibbous, 96% of the Moon is Illuminated
Feb 23
Waxing Gibbous
Feb 25
Full
Mar 4
Last Quarter
Mar 11
New
Mar 19
First Quarter

Hourly Weather History & Observations

Time (PST) Temp. Windchill Dew Point Humidity Pressure Visibility Wind Dir Wind Speed Gust Speed Precip Events Conditions
12:15 AM 30.2 °F 16.8 °F 26.6 °F 86% 29.90 in 10.0 mi NW 23.0 mph 29.9 mph 0.01 in   Mostly Cloudy
12:35 AM 28.4 °F 12.7 °F 23.0 °F 80% 29.91 in 10.0 mi West 29.9 mph 41.4 mph 0.01 in   Partly Cloudy
12:55 AM 28.4 °F 13.8 °F 21.2 °F 74% 29.92 in 10.0 mi West 25.3 mph 39.1 mph 0.01 in   Clear
1:15 AM 26.6 °F 12.0 °F 21.2 °F 80% 29.94 in 10.0 mi WNW 23.0 mph 40.3 mph N/A   Clear
1:35 AM 26.6 °F 15.2 °F 21.2 °F 80% 29.95 in 10.0 mi WNW 13.8 mph 26.5 mph N/A   Clear
1:55 AM 26.6 °F 14.3 °F 19.4 °F 74% 29.97 in 10.0 mi WNW 16.1 mph 20.7 mph N/A   Clear
2:15 AM 24.8 °F 13.4 °F 19.4 °F 80% 29.98 in 10.0 mi NW 12.7 mph 20.7 mph N/A   Clear
2:35 AM 24.8 °F 17.9 °F 19.4 °F 80% 29.99 in 10.0 mi NW 5.8 mph 18.4 mph N/A   Partly Cloudy
2:55 AM 24.8 °F 20.5 °F 17.6 °F 74% 29.99 in 10.0 mi West 3.5 mph - N/A   Scattered Clouds
3:15 AM 23.0 °F - 17.6 °F 80% 29.99 in 10.0 mi Calm Calm - N/A   Scattered Clouds
3:35 AM 23.0 °F 14.7 °F 19.4 °F 86% 29.98 in 10.0 mi NW 6.9 mph - N/A   Mostly Cloudy
3:55 AM 24.8 °F 15.3 °F 19.4 °F 80% 29.99 in 10.0 mi NNW 9.2 mph - N/A   Mostly Cloudy
4:15 AM 24.8 °F 14.6 °F 19.4 °F 80% 30.00 in 10.0 mi NW 10.4 mph - N/A   Overcast
4:35 AM 24.8 °F 12.9 °F 17.6 °F 74% 30.00 in 10.0 mi NW 13.8 mph 19.6 mph N/A   Scattered Clouds
4:55 AM 23.0 °F 13.1 °F 17.6 °F 80% 30.01 in 10.0 mi NNW 9.2 mph - N/A   Clear
5:15 AM 21.2 °F 10.1 °F 17.6 °F 86% 30.02 in 10.0 mi WNW 10.4 mph - N/A   Clear
5:35 AM 21.2 °F 10.1 °F 17.6 °F 86% 30.04 in 10.0 mi WNW 10.4 mph - N/A   Scattered Clouds
5:55 AM 23.0 °F 13.1 °F 17.6 °F 80% 30.05 in 10.0 mi NW 9.2 mph - N/A   Scattered Clouds
6:15 AM 23.0 °F 15.8 °F 17.6 °F 80% 30.06 in 10.0 mi West 5.8 mph - N/A   Scattered Clouds
6:35 AM 23.0 °F 14.7 °F 19.4 °F 86% 30.08 in 10.0 mi WNW 6.9 mph - N/A   Mostly Cloudy
6:55 AM 23.0 °F 13.9 °F 17.6 °F 80% 30.08 in 10.0 mi West 8.1 mph - N/A   Overcast
7:15 AM 24.8 °F 14.6 °F 21.2 °F 86% 30.09 in 10.0 mi WSW 10.4 mph - N/A   Overcast
7:35 AM 24.8 °F 13.4 °F 19.4 °F 80% 30.10 in 10.0 mi WSW 12.7 mph 19.6 mph N/A   Overcast
7:55 AM 24.8 °F 14.6 °F 21.2 °F 86% 30.11 in 10.0 mi WSW 10.4 mph - N/A   Overcast
8:15 AM 24.8 °F 14.0 °F 21.2 °F 86% 30.12 in 10.0 mi West 11.5 mph - N/A   Overcast
8:35 AM 24.8 °F 14.0 °F 19.4 °F 80% 30.12 in 10.0 mi West 11.5 mph - N/A   Mostly Cloudy
8:55 AM 26.6 °F 18.2 °F 21.2 °F 80% 30.13 in 10.0 mi SW 8.1 mph - N/A   Overcast
9:15 AM 28.4 °F 19.1 °F 24.8 °F 86% 30.13 in 10.0 mi WSW 10.4 mph - N/A   Overcast
9:35 AM 28.4 °F 19.7 °F 23.0 °F 80% 30.13 in 10.0 mi WSW 9.2 mph - N/A   Overcast
9:55 AM 30.2 °F 20.8 °F 24.8 °F 80% 30.14 in 10.0 mi WSW 11.5 mph - N/A   Mostly Cloudy
10:15 AM 30.2 °F 21.3 °F 21.2 °F 69% 30.14 in 10.0 mi West 10.4 mph - N/A   Mostly Cloudy
10:35 AM 32.0 °F 23.6 °F 24.8 °F 75% 30.14 in 10.0 mi WSW 10.4 mph - N/A   Mostly Cloudy
10:55 AM 33.8 °F 24.8 °F 21.2 °F 60% 30.15 in 10.0 mi WSW 12.7 mph - N/A   Overcast
11:15 AM 32.0 °F 21.2 °F 23.0 °F 69% 30.15 in 10.0 mi West 16.1 mph - N/A   Overcast
11:35 AM 33.8 °F 22.8 °F 24.8 °F 70% 30.15 in 10.0 mi West 18.4 mph - N/A   Mostly Cloudy
11:55 AM 33.8 °F 23.2 °F 21.2 °F 60% 30.14 in 10.0 mi West 17.3 mph 23.0 mph N/A   Scattered Clouds
12:15 PM 33.8 °F 22.8 °F 23.0 °F 65% 30.14 in 10.0 mi West 18.4 mph 21.9 mph N/A   Scattered Clouds
12:35 PM 33.8 °F 23.9 °F 19.4 °F 56% 30.14 in 10.0 mi West 15.0 mph - N/A   Mostly Cloudy
12:55 PM 35.6 °F 25.9 °F 21.2 °F 56% 30.13 in 10.0 mi West 16.1 mph 20.7 mph N/A   Mostly Cloudy
1:15 PM 35.6 °F 26.2 °F 21.2 °F 56% 30.13 in 10.0 mi West 15.0 mph - N/A   Mostly Cloudy
1:35 PM 35.6 °F 25.9 °F 19.4 °F 52% 30.13 in 10.0 mi West 16.1 mph 24.2 mph N/A   Overcast
1:55 PM 33.8 °F 23.2 °F 21.2 °F 60% 30.13 in 10.0 mi WNW 17.3 mph 23.0 mph N/A   Overcast
2:15 PM 33.8 °F 23.9 °F 21.2 °F 60% 30.13 in 10.0 mi WNW 15.0 mph 20.7 mph N/A   Mostly Cloudy
2:35 PM 33.8 °F 23.5 °F 19.4 °F 56% 30.13 in 10.0 mi West 16.1 mph - N/A   Mostly Cloudy
2:55 PM 33.8 °F 23.9 °F 19.4 °F 56% 30.14 in 10.0 mi NW 15.0 mph 26.5 mph N/A   Mostly Cloudy
3:15 PM 33.8 °F 24.8 °F 19.4 °F 56% 30.14 in 10.0 mi WNW 12.7 mph - N/A   Overcast
3:35 PM 33.8 °F 24.8 °F 19.4 °F 56% 30.14 in 10.0 mi WNW 12.7 mph - N/A   Overcast
3:55 PM 33.8 °F 25.3 °F 19.4 °F 56% 30.15 in 10.0 mi WNW 11.5 mph - N/A   Overcast
4:15 PM 33.8 °F 24.3 °F 21.2 °F 60% 30.15 in 10.0 mi West 13.8 mph 19.6 mph N/A   Mostly Cloudy
4:55 PM 33.8 °F 24.3 °F 19.4 °F 56% 30.15 in 10.0 mi WNW 13.8 mph - N/A   Partly Cloudy
5:15 PM 33.8 °F 26.4 °F 19.4 °F 56% 30.17 in 10.0 mi NW 9.2 mph - N/A   Mostly Cloudy
5:35 PM 32.0 °F 26.4 °F 17.6 °F 55% 30.18 in 10.0 mi NNW 5.8 mph - N/A   Mostly Cloudy
5:55 PM 30.2 °F 21.3 °F 15.8 °F 55% 30.19 in 10.0 mi NNW 10.4 mph - N/A   Overcast
6:15 PM 30.2 °F 21.9 °F 15.8 °F 55% 30.19 in 10.0 mi NNW 9.2 mph - N/A   Overcast
6:35 PM 26.6 °F 21.2 °F 15.8 °F 64% 30.20 in 10.0 mi North 4.6 mph - N/A   Scattered Clouds
6:55 PM 26.6 °F 19.1 °F 17.6 °F 69% 30.20 in 10.0 mi WNW 6.9 mph - N/A   Clear
7:15 PM 24.8 °F 19.1 °F 15.8 °F 69% 30.21 in 10.0 mi ENE 4.6 mph - N/A   Clear
7:35 PM 23.0 °F 15.8 °F 15.8 °F 74% 30.21 in 10.0 mi North 5.8 mph - N/A   Clear
8:15 PM 21.2 °F - 17.6 °F 86% 30.22 in 10.0 mi Calm Calm - N/A   Clear
8:35 PM 21.2 °F 14.9 °F 17.6 °F 86% 30.23 in 10.0 mi NW 4.6 mph - N/A   Clear
8:55 PM 19.4 °F 10.4 °F 17.6 °F 93% 30.23 in 10.0 mi NW 6.9 mph - N/A   Clear
9:15 PM 19.4 °F 9.5 °F 15.8 °F 86% 30.23 in 10.0 mi NW 8.1 mph - N/A   Clear
9:35 PM 19.4 °F 10.4 °F 17.6 °F 93% 30.24 in 10.0 mi NW 6.9 mph - N/A   Clear
9:55 PM 19.4 °F 14.3 °F 17.6 °F 93% 30.24 in 10.0 mi ENE 3.5 mph - N/A   Clear
10:15 PM 19.4 °F 14.3 °F 15.8 °F 86% 30.25 in 10.0 mi North 3.5 mph - N/A   Clear
10:35 PM 21.2 °F 14.9 °F 15.8 °F 80% 30.25 in 10.0 mi North 4.6 mph - N/A   Clear
10:55 PM 19.4 °F 8.6 °F 15.8 °F 86% 30.25 in 10.0 mi North 9.2 mph - N/A   Clear
11:15 PM 19.4 °F 8.6 °F 15.8 °F 86% 30.25 in 10.0 mi North 9.2 mph - N/A   Clear
11:35 PM 19.4 °F 9.5 °F 15.8 °F 86% 30.25 in 10.0 mi NNW 8.1 mph - N/A   Clear
11:55 PM 19.4 °F 7.9 °F 15.8 °F 86% 30.25 in 10.0 mi NNW 10.4 mph - N/A   Clear